Regional Weather Roundup
Issued by NWS Sioux Falls, SD

Home | Current Version | Previous Version | Text Only | Print | Product List | Glossary Off
Versions: 1 2 3 4 5 6 7 8 9 10 11 12 13 14 15 16 17 18 19 20 21 22 23 24 25 26 27 28 29 30 31 32 33 34 35 36 37 38 39 40 41 42 43 44 45 46 47 48 49 50

000
ASUS43 KFSD 280510
RWRFSD

WEATHER ROUNDUP FOR SE SOUTH DAKOTA/SW MINNESOTA/NW IOWA
NATIONAL WEATHER SERVICE SIOUX FALLS SD
1200 AM CDT MON JUL 28 2014

NOTE: "FAIR" INDICATES FEW OR NO CLOUDS BELOW 12,000 FEET WITH NO
SIGNIFICANT WEATHER AND OR OBSTRUCTIONS TO VISIBILITY.


SDZ038>040-050-052>070-280600-
SOUTHEAST SOUTH DAKOTA

CITY           SKY/WX    TMP DP  RH WIND       PRES   REMARKS
CHAMBERLAIN    CLEAR     58  54  84 CALM      30.28R
HURON          CLEAR     54  52  93 NW3       30.25R
MADISON        MOCLDY    57  57 100 N5        30.23S
MITCHELL       CLEAR     59  55  87 W6        30.26R
SIOUX FALLS    MOCLDY    63  58  83 N8        30.22R
WINNER         FAIR      60  53  77 NE7       30.29R
YANKTON        CLOUDY    61  55  82 NW6       30.24R
$$

MNZ071-072-080-081-089-090-097-098-280600-
SOUTHWEST MINNESOTA

CITY           SKY/WX    TMP DP  RH WIND       PRES   REMARKS
FAIRMONT       CLOUDY    63  57  82 NW9G16    30.15R
JACKSON        CLEAR     59  55  88 NW9       30.18R
LUVERNE        CLEAR     61  54  77 N7        30.21S
MARSHALL       CLOUDY    61  54  77 NW8       30.19R
MONTEVIDEO     CLOUDY    63  57  82 N9        30.19S
PIPESTONE      CLEAR     59  54  82 N6        30.21S
REDWOOD FALLS  CLOUDY    63  57  81 NW10      30.16R
TRACY          CLOUDY    61  57  85 NW9       30.20R
WINDOM         PTCLDY    61  55  82 NW13      30.17S
WORTHINGTON    CLEAR     57  54  88 NW9       30.20S
$$

IAZ001>003-012>014-020>022-031-032-NEZ013-014-SDZ071-280600-
NORTHWEST IOWA

CITY           SKY/WX    TMP DP  RH WIND       PRES   REMARKS
CHEROKEE       CLEAR     61  58  90 N8        30.18S
DENISON        CLEAR     61  57  88 NW6       30.16S
ESTHERVILLE    PTCLDY    60  57  89 NW10      30.16R
LE MARS        MOCLDY    59  55  88 NW6       30.21R
ORANGE CITY    MOCLDY    63  55  77 N8        30.20S
SHELDON        CLEAR     57  55  94 NW6       30.18S
SIOUX CITY     CLEAR     60  56  86 NW5       30.21R
SPENCER        CLEAR     59  56  89 NW8       30.18R
STORM LAKE     CLEAR     59  59 100 N9        30.18S
$$

ABBREVIATIONS USED IN REMARKS
   TC - TEMPERATURE IN CELSIUS
  WCI - WIND CHILL INDEX
   HX - HEAT INDEX
  VSB - VISIBILITY




USA.gov is the U.S. government's official web portal to all federal, state and local government web resources and services.